Time,TemperatureF,DewpointF,PressureIn,WindDirection,WindDirectionDegrees,WindSpeedMPH,WindSpeedGustMPH,Humidity,HourlyPrecipIn,Conditions,Clouds,dailyrainin,SoftwareType,DateUTC
2013-02-16 00:00:00,33.6,30.1,30.14,South,190,0.0,4.0,87,0.00,,,0.00,Wunderground v.1.15,2013-02-16 05:00:00,
2013-02-16 00:03:00,33.5,30.0,30.14,NE,52,0.0,3.0,87,0.00,,,0.00,Wunderground v.1.15,2013-02-16 05:03:00,
2013-02-16 00:08:00,33.5,30.0,30.14,NW,325,3.0,3.0,87,0.00,,,0.00,Wunderground v.1.15,2013-02-16 05:08:00,
2013-02-16 00:13:00,33.5,30.0,30.13,NNE,18,0.0,6.0,87,0.00,,,0.00,Wunderground v.1.15,2013-02-16 05:13:00,
2013-02-16 00:19:00,33.4,29.9,30.13,West,264,0.0,6.0,87,0.00,,,0.00,Wunderground v.1.15,2013-02-16 05:19:00,
2013-02-16 00:24:00,33.4,29.9,30.13,South,176,0.0,3.0,87,0.00,,,0.00,Wunderground v.1.15,2013-02-16 05:24:00,
2013-02-16 00:29:00,33.3,29.8,30.13,North,355,1.0,6.0,87,0.00,,,0.00,Wunderground v.1.15,2013-02-16 05:29:00,
2013-02-16 00:31:00,33.3,29.8,30.13,WNW,300,0.0,2.0,87,0.00,,,0.00,Wunderground v.1.15,2013-02-16 05:31:00,
2013-02-16 00:36:00,33.3,29.8,30.13,NNE,14,0.0,2.0,87,0.00,,,0.00,Wunderground v.1.15,2013-02-16 05:36:00,
2013-02-16 00:42:00,33.2,30.0,30.12,NW,306,0.0,3.0,88,0.00,,,0.00,Wunderground v.1.15,2013-02-16 05:42:00,
2013-02-16 00:47:00,33.1,29.9,30.12,NW,325,1.0,3.0,88,0.00,,,0.00,Wunderground v.1.15,2013-02-16 05:47:00,
2013-02-16 00:52:00,33.1,29.7,30.12,NNE,21,0.0,1.0,87,0.00,,,0.00,Wunderground v.1.15,2013-02-16 05:52:00,
2013-02-16 00:57:00,33.0,29.6,30.12,East,91,0.0,2.0,87,0.00,,,0.00,Wunderground v.1.15,2013-02-16 05:57:00,
2013-02-16 01:03:00,33.0,29.3,30.12,NE,47,0.0,4.0,86,0.00,,,0.00,Wunderground v.1.15,2013-02-16 06:03:00,
2013-02-16 01:08:00,33.0,29.3,30.12,West,270,0.0,10.0,86,0.00,,,0.00,Wunderground v.1.15,2013-02-16 06:08:00,
2013-02-16 01:13:00,32.9,28.9,30.12,NNW,346,0.0,1.0,85,0.00,,,0.00,Wunderground v.1.15,2013-02-16 06:13:00,
2013-02-16 01:18:00,32.9,28.3,30.12,WSW,243,0.0,2.0,83,0.00,,,0.00,Wunderground v.1.15,2013-02-16 06:18:00,
2013-02-16 01:24:00,33.0,28.1,30.12,North,5,0.0,1.0,82,0.00,,,0.00,Wunderground v.1.15,2013-02-16 06:24:00,
2013-02-16 01:29:00,33.0,28.1,30.12,NNW,328,0.0,1.0,82,0.00,,,0.00,Wunderground v.1.15,2013-02-16 06:29:00,
2013-02-16 01:34:00,32.9,28.3,30.12,NNW,328,1.0,1.0,83,0.00,,,0.00,Wunderground v.1.15,2013-02-16 06:34:00,
2013-02-16 01:39:00,32.9,28.0,30.12,WSW,240,2.0,3.0,82,0.00,,,0.00,Wunderground v.1.15,2013-02-16 06:39:00,
2013-02-16 01:44:00,32.8,27.9,30.12,WNW,283,1.0,1.0,82,0.00,,,0.00,Wunderground v.1.15,2013-02-16 06:44:00,
2013-02-16 01:50:00,32.8,27.9,30.12,West,279,1.0,1.0,82,0.00,,,0.00,Wunderground v.1.15,2013-02-16 06:50:00,
2013-02-16 01:55:00,32.7,28.1,30.11,WSW,246,0.0,1.0,83,0.00,,,0.00,Wunderground v.1.15,2013-02-16 06:55:00,
2013-02-16 02:00:00,32.6,28.0,30.11,WSW,246,0.0,0.0,83,0.00,,,0.00,Wunderground v.1.15,2013-02-16 07:00:00,
2013-02-16 02:05:00,32.6,28.0,30.11,WSW,240,0.0,2.0,83,0.00,,,0.00,Wunderground v.1.15,2013-02-16 07:05:00,
2013-02-16 02:10:00,32.5,27.9,30.11,WSW,240,0.0,0.0,83,0.00,,,0.00,Wunderground v.1.15,2013-02-16 07:10:00,
2013-02-16 02:16:00,32.4,27.8,30.11,ENE,66,0.0,3.0,83,0.00,,,0.00,Wunderground v.1.15,2013-02-16 07:16:00,
2013-02-16 02:21:00,32.4,27.8,30.11,NNE,13,0.0,1.0,83,0.00,,,0.00,Wunderground v.1.15,2013-02-16 07:21:00,
2013-02-16 02:26:00,32.4,28.1,30.11,WNW,302,0.0,2.0,84,0.00,,,0.00,Wunderground v.1.15,2013-02-16 07:26:00,
2013-02-16 02:31:00,32.4,28.1,30.10,NNW,327,0.0,1.0,84,0.00,,,0.00,Wunderground v.1.15,2013-02-16 07:31:00,
2013-02-16 02:36:00,32.4,27.8,30.10,NW,320,0.0,10.0,83,0.00,,,0.00,Wunderground v.1.15,2013-02-16 07:36:00,
2013-02-16 02:41:00,32.4,27.8,30.10,NNW,333,1.0,1.0,83,0.00,,,0.00,Wunderground v.1.15,2013-02-16 07:41:00,
2013-02-16 02:46:00,32.4,27.8,30.10,NNW,333,0.0,1.0,83,0.00,,,0.00,Wunderground v.1.15,2013-02-16 07:46:00,
2013-02-16 02:51:00,32.4,27.8,30.10,NE,45,0.0,1.0,83,0.00,,,0.00,Wunderground v.1.15,2013-02-16 07:51:00,
2013-02-16 02:56:00,32.4,27.8,30.09,South,186,0.0,3.0,83,0.00,,,0.00,Wunderground v.1.15,2013-02-16 07:56:00,
2013-02-16 03:01:00,32.4,27.8,30.09,SSW,209,0.0,2.0,83,0.00,,,0.00,Wunderground v.1.15,2013-02-16 08:01:00,
2013-02-16 03:06:00,32.5,27.9,30.09,West,278,0.0,4.0,83,0.00,,,0.00,Wunderground v.1.15,2013-02-16 08:06:00,
2013-02-16 03:11:00,32.5,27.9,30.08,West,279,0.0,1.0,83,0.00,,,0.00,Wunderground v.1.15,2013-02-16 08:11:00,
2013-02-16 03:16:00,32.4,27.8,30.08,West,279,0.0,2.0,83,0.00,,,0.00,Wunderground v.1.15,2013-02-16 08:16:00,
2013-02-16 03:21:00,32.4,28.1,30.08,WNW,297,1.0,2.0,84,0.00,,,0.00,Wunderground v.1.15,2013-02-16 08:21:00,
2013-02-16 03:26:00,32.4,28.1,30.08,West,261,1.0,3.0,84,0.00,,,0.00,Wunderground v.1.15,2013-02-16 08:26:00,
2013-02-16 03:31:00,32.4,28.1,30.08,West,264,1.0,1.0,84,0.00,,,0.00,Wunderground v.1.15,2013-02-16 08:31:00,
2013-02-16 03:36:00,32.3,28.0,30.08,WSW,248,1.0,2.0,84,0.00,,,0.00,Wunderground v.1.15,2013-02-16 08:36:00,
2013-02-16 03:41:00,32.2,28.2,30.08,WNW,301,0.0,1.0,85,0.00,,,0.00,Wunderground v.1.15,2013-02-16 08:41:00,
2013-02-16 03:46:00,32.1,28.1,30.08,WNW,301,0.0,1.0,85,0.00,,,0.00,Wunderground v.1.15,2013-02-16 08:46:00,
2013-02-16 03:51:00,32.1,28.1,30.08,North,360,11.0,11.0,85,0.00,,,0.00,Wunderground v.1.15,2013-02-16 08:51:00,
2013-02-16 03:56:00,32.0,28.3,30.07,North,5,0.0,11.0,86,0.00,,,0.00,Wunderground v.1.15,2013-02-16 08:56:00,
2013-02-16 04:01:00,32.0,28.3,30.07,NW,309,0.0,1.0,86,0.00,,,0.00,Wunderground v.1.15,2013-02-16 09:01:00,
2013-02-16 04:06:00,31.9,28.2,30.07,East,96,1.0,2.0,86,0.00,,,0.00,Wunderground v.1.15,2013-02-16 09:06:00,
2013-02-16 04:11:00,31.9,28.2,30.07,NNE,21,0.0,3.0,86,0.00,,,0.00,Wunderground v.1.15,2013-02-16 09:11:00,
2013-02-16 04:16:00,31.8,29.7,30.07,WNW,300,0.0,4.0,92,0.00,,,0.00,Wunderground v.1.15,2013-02-16 09:16:00,
2013-02-16 04:22:00,31.7,28.3,30.07,ENE,60,0.0,1.0,87,0.00,,,0.00,Wunderground v.1.15,2013-02-16 09:22:00,
2013-02-16 04:27:00,31.7,28.3,30.07,North,5,0.0,4.0,87,0.00,,,0.00,Wunderground v.1.15,2013-02-16 09:27:00,
2013-02-16 04:31:00,31.7,28.3,30.07,ENE,70,1.0,1.0,87,0.00,,,0.00,Wunderground v.1.15,2013-02-16 09:31:00,
2013-02-16 04:36:00,31.7,28.3,30.07,WNW,300,0.0,9.0,87,0.00,,,0.00,Wunderground v.1.15,2013-02-16 09:36:00,
2013-02-16 04:42:00,31.7,28.3,30.07,NNE,27,0.0,3.0,87,0.00,,,0.00,Wunderground v.1.15,2013-02-16 09:42:00,
2013-02-16 04:47:00,31.7,28.3,30.07,NNW,331,0.0,3.0,87,0.00,,,0.00,Wunderground v.1.15,2013-02-16 09:47:00,
2013-02-16 04:52:00,31.7,28.3,30.07,NNW,343,1.0,1.0,87,0.00,,,0.00,Wunderground v.1.15,2013-02-16 09:52:00,
2013-02-16 04:57:00,31.6,28.2,30.07,NNE,31,0.0,3.0,87,0.00,,,0.00,Wunderground v.1.15,2013-02-16 09:57:00,
2013-02-16 05:02:00,31.6,28.5,30.07,North,11,0.0,0.0,88,0.00,,,0.00,Wunderground v.1.15,2013-02-16 10:02:00,
2013-02-16 05:07:00,31.6,28.5,30.07,ESE,103,0.0,4.0,88,0.00,,,0.00,Wunderground v.1.15,2013-02-16 10:07:00,
2013-02-16 05:12:00,31.5,28.4,30.07,NNE,25,0.0,1.0,88,0.00,,,0.00,Wunderground v.1.15,2013-02-16 10:12:00,
2013-02-16 05:17:00,31.5,28.4,30.07,NNE,15,0.0,2.0,88,0.00,,,0.00,Wunderground v.1.15,2013-02-16 10:17:00,
2013-02-16 05:22:00,31.4,28.3,30.07,NE,42,1.0,3.0,88,0.00,,,0.00,Wunderground v.1.15,2013-02-16 10:22:00,
2013-02-16 05:27:00,31.4,28.5,30.07,NE,42,0.0,3.0,89,0.00,,,0.00,Wunderground v.1.15,2013-02-16 10:27:00,
2013-02-16 05:32:00,31.4,28.5,30.07,NE,35,0.0,1.0,89,0.00,,,0.00,Wunderground v.1.15,2013-02-16 10:32:00,
2013-02-16 05:37:00,31.4,28.5,30.07,NE,35,0.0,2.0,89,0.00,,,0.00,Wunderground v.1.15,2013-02-16 10:37:00,
2013-02-16 05:42:00,31.4,28.5,30.07,ENE,67,0.0,3.0,89,0.00,,,0.00,Wunderground v.1.15,2013-02-16 10:42:00,
2013-02-16 05:47:00,31.4,28.5,30.07,ENE,75,0.0,3.0,89,0.00,,,0.00,Wunderground v.1.15,2013-02-16 10:47:00,
2013-02-16 05:52:00,31.3,28.4,30.08,ENE,75,0.0,0.0,89,0.00,,,0.00,Wunderground v.1.15,2013-02-16 10:52:00,
2013-02-16 05:57:00,31.4,28.5,30.07,ENE,74,0.0,2.0,89,0.00,,,0.00,Wunderground v.1.15,2013-02-16 10:57:00,
2013-02-16 06:02:00,31.3,28.4,30.07,NE,38,0.0,1.0,89,0.00,,,0.00,Wunderground v.1.15,2013-02-16 11:02:00,
2013-02-16 06:07:00,31.3,28.7,30.08,NE,38,0.0,1.0,90,0.00,,,0.00,Wunderground v.1.15,2013-02-16 11:07:00,
2013-02-16 06:12:00,31.3,28.7,30.07,NE,38,0.0,1.0,90,0.00,,,0.00,Wunderground v.1.15,2013-02-16 11:12:00,
2013-02-16 06:17:00,31.3,28.7,30.07,NE,38,0.0,1.0,90,0.00,,,0.00,Wunderground v.1.15,2013-02-16 11:17:00,
2013-02-16 06:22:00,31.3,28.7,30.07,East,79,0.0,0.0,90,0.00,,,0.00,Wunderground v.1.15,2013-02-16 11:22:00,
2013-02-16 06:27:00,31.3,28.7,30.07,ENE,60,0.0,1.0,90,0.00,,,0.00,Wunderground v.1.15,2013-02-16 11:27:00,
2013-02-16 06:32:00,31.3,28.7,30.07,ENE,63,0.0,0.0,90,0.00,,,0.00,Wunderground v.1.15,2013-02-16 11:32:00,
2013-02-16 06:37:00,31.2,28.6,30.07,NE,46,0.0,3.0,90,0.00,,,0.00,Wunderground v.1.15,2013-02-16 11:37:00,
2013-02-16 06:42:00,31.2,28.6,30.07,NE,46,0.0,0.0,90,0.00,,,0.00,Wunderground v.1.15,2013-02-16 11:42:00,
2013-02-16 06:47:00,31.2,28.6,30.06,NE,46,0.0,1.0,90,0.00,,,0.00,Wunderground v.1.15,2013-02-16 11:47:00,
2013-02-16 06:52:00,31.2,28.6,30.06,NE,37,0.0,1.0,90,0.00,,,0.00,Wunderground v.1.15,2013-02-16 11:52:00,
2013-02-16 06:57:00,31.2,28.6,30.07,NE,37,0.0,1.0,90,0.00,,,0.00,Wunderground v.1.15,2013-02-16 11:57:00,
2013-02-16 07:02:00,31.2,28.6,30.07,NE,37,0.0,0.0,90,0.00,,,0.00,Wunderground v.1.15,2013-02-16 12:02:00,
2013-02-16 07:07:00,31.2,28.3,30.06,NNE,12,0.0,4.0,89,0.00,,,0.00,Wunderground v.1.15,2013-02-16 12:07:00,
2013-02-16 07:12:00,31.3,28.4,30.06,NNE,12,0.0,0.0,89,0.00,,,0.00,Wunderground v.1.15,2013-02-16 12:12:00,
2013-02-16 07:17:00,31.3,28.4,30.05,NNE,12,0.0,1.0,89,0.00,,,0.00,Wunderground v.1.15,2013-02-16 12:17:00,
2013-02-16 07:22:00,31.3,28.4,30.05,NNE,12,0.0,1.0,89,0.00,,,0.00,Wunderground v.1.15,2013-02-16 12:22:00,
2013-02-16 07:27:00,31.3,28.4,30.06,NNE,12,0.0,1.0,89,0.00,,,0.00,Wunderground v.1.15,2013-02-16 12:27:00,
2013-02-16 07:32:00,31.3,28.4,30.05,NNE,12,0.0,0.0,89,0.00,,,0.00,Wunderground v.1.15,2013-02-16 12:32:00,
2013-02-16 07:37:00,31.3,28.4,30.05,NNE,12,0.0,0.0,89,0.00,,,0.00,Wunderground v.1.15,2013-02-16 12:37:00,
2013-02-16 07:42:00,31.3,28.4,30.05,NNE,12,0.0,0.0,89,0.00,,,0.00,Wunderground v.1.15,2013-02-16 12:42:00,
2013-02-16 07:47:00,31.3,28.7,30.05,NNE,12,0.0,1.0,90,0.00,,,0.00,Wunderground v.1.15,2013-02-16 12:47:00,
2013-02-16 07:52:00,31.3,28.4,30.05,NNE,12,0.0,0.0,89,0.00,,,0.00,Wunderground v.1.15,2013-02-16 12:52:00,
2013-02-16 07:57:00,31.3,28.7,30.05,NNE,12,0.0,1.0,90,0.00,,,0.00,Wunderground v.1.15,2013-02-16 12:57:00,
2013-02-16 08:02:00,31.3,28.7,30.06,NNE,12,0.0,1.0,90,0.00,,,0.00,Wunderground v.1.15,2013-02-16 13:02:00,
2013-02-16 08:07:00,31.3,28.7,30.06,NNE,12,0.0,1.0,90,0.00,,,0.00,Wunderground v.1.15,2013-02-16 13:07:00,
2013-02-16 08:12:00,31.3,28.7,30.06,WSW,244,1.0,1.0,90,0.00,,,0.00,Wunderground v.1.15,2013-02-16 13:12:00,
2013-02-16 08:17:00,31.4,28.8,30.05,WSW,244,0.0,1.0,90,0.00,,,0.00,Wunderground v.1.15,2013-02-16 13:17:00,
2013-02-16 08:22:00,31.4,28.8,30.05,WSW,244,0.0,1.0,90,0.00,,,0.00,Wunderground v.1.15,2013-02-16 13:22:00,
2013-02-16 08:27:00,31.4,28.8,30.05,WSW,244,0.0,1.0,90,0.00,,,0.00,Wunderground v.1.15,2013-02-16 13:27:00,
2013-02-16 08:32:00,31.5,29.2,30.05,WSW,244,0.0,1.0,91,0.00,,,0.00,Wunderground v.1.15,2013-02-16 13:32:00,
2013-02-16 08:38:00,31.5,28.9,30.05,WSW,244,0.0,1.0,90,0.00,,,0.00,Wunderground v.1.15,2013-02-16 13:38:00,
2013-02-16 08:43:00,31.5,28.9,30.06,WSW,244,0.0,1.0,90,0.00,,,0.00,Wunderground v.1.15,2013-02-16 13:43:00,
2013-02-16 08:48:00,31.5,28.6,30.06,ENE,61,0.0,4.0,89,0.00,,,0.00,Wunderground v.1.15,2013-02-16 13:48:00,
2013-02-16 08:53:00,31.6,29.0,30.06,ENE,60,0.0,1.0,90,0.00,,,0.00,Wunderground v.1.15,2013-02-16 13:53:00,
2013-02-16 08:58:00,31.7,28.8,30.06,SE,129,0.0,2.0,89,0.00,,,0.00,Wunderground v.1.15,2013-02-16 13:58:00,
2013-02-16 09:03:00,31.8,28.9,30.06,SSW,195,0.0,2.0,89,0.00,,,0.00,Wunderground v.1.15,2013-02-16 14:03:00,
2013-02-16 09:08:00,31.9,28.5,30.05,SSW,202,0.0,2.0,87,0.00,,,0.00,Wunderground v.1.15,2013-02-16 14:08:00,
2013-02-16 09:13:00,31.9,28.2,30.06,SSW,202,0.0,1.0,86,0.00,,,0.00,Wunderground v.1.15,2013-02-16 14:13:00,
2013-02-16 09:18:00,31.9,28.2,30.06,SSW,202,0.0,1.0,86,0.00,,,0.00,Wunderground v.1.15,2013-02-16 14:18:00,
2013-02-16 09:23:00,32.0,28.6,30.05,NE,40,0.0,2.0,87,0.00,,,0.00,Wunderground v.1.15,2013-02-16 14:23:00,
2013-02-16 09:28:00,32.1,28.4,30.05,NE,39,0.0,2.0,86,0.00,,,0.00,Wunderground v.1.15,2013-02-16 14:28:00,
2013-02-16 09:33:00,32.1,28.4,30.05,NE,40,1.0,1.0,86,0.00,,,0.00,Wunderground v.1.15,2013-02-16 14:33:00,
2013-02-16 09:38:00,32.2,28.2,30.05,NNE,14,0.0,4.0,85,0.00,,,0.00,Wunderground v.1.15,2013-02-16 14:38:00,
2013-02-16 09:43:00,32.4,28.4,30.04,ENE,57,2.0,3.0,85,0.00,,,0.00,Wunderground v.1.15,2013-02-16 14:43:00,
2013-02-16 09:48:00,32.6,28.0,30.04,NE,37,2.0,6.0,83,0.00,,,0.00,Wunderground v.1.15,2013-02-16 14:48:00,
2013-02-16 09:53:00,32.7,27.8,30.04,NNE,29,3.0,5.0,82,0.00,,,0.00,Wunderground v.1.15,2013-02-16 14:53:00,
2013-02-16 09:58:00,32.8,28.2,30.04,ENE,57,0.0,5.0,83,0.00,,,0.00,Wunderground v.1.15,2013-02-16 14:58:00,
2013-02-16 10:04:00,33.0,28.1,30.04,NNE,21,0.0,1.0,82,0.00,,,0.00,Wunderground v.1.15,2013-02-16 15:04:00,
2013-02-16 10:09:00,33.3,27.8,30.04,ENE,65,1.0,3.0,80,0.00,,,0.00,Wunderground v.1.15,2013-02-16 15:09:00,
2013-02-16 10:14:00,33.5,27.7,30.04,NNE,29,0.0,5.0,79,0.00,,,0.00,Wunderground v.1.15,2013-02-16 15:14:00,
2013-02-16 10:19:00,33.6,27.5,30.03,North,5,0.0,5.0,78,0.00,,,0.00,Wunderground v.1.15,2013-02-16 15:19:00,
2013-02-16 10:24:00,33.5,27.4,30.03,NE,46,0.0,5.0,78,0.00,,,0.00,Wunderground v.1.15,2013-02-16 15:24:00,
2013-02-16 10:29:00,33.6,27.8,30.04,North,10,1.0,5.0,79,0.00,,,0.00,Wunderground v.1.15,2013-02-16 15:29:00,
2013-02-16 10:34:00,33.7,27.6,30.04,NNE,30,0.0,3.0,78,0.00,,,0.00,Wunderground v.1.15,2013-02-16 15:34:00,
2013-02-16 10:39:00,33.9,27.4,30.04,NNE,21,0.0,3.0,77,0.00,,,0.00,Wunderground v.1.15,2013-02-16 15:39:00,
2013-02-16 10:44:00,33.8,27.0,30.04,NE,34,0.0,6.0,76,0.00,,,0.00,Wunderground v.1.15,2013-02-16 15:44:00,
2013-02-16 10:49:00,33.8,27.4,30.04,NNE,26,0.0,6.0,77,0.00,,,0.00,Wunderground v.1.15,2013-02-16 15:49:00,
2013-02-16 10:54:00,33.8,27.4,30.04,WNW,292,2.0,2.0,77,0.00,,,0.00,Wunderground v.1.15,2013-02-16 15:54:00,
2013-02-16 10:59:00,33.6,26.8,30.03,WSW,245,0.0,4.0,76,0.00,,,0.00,Wunderground v.1.15,2013-02-16 15:59:00,
2013-02-16 11:04:00,33.3,26.5,30.04,NW,307,0.0,3.0,76,0.00,,,0.00,Wunderground v.1.15,2013-02-16 16:04:00,
2013-02-16 11:09:00,33.2,26.1,30.04,NE,36,1.0,4.0,75,0.00,,,0.00,Wunderground v.1.15,2013-02-16 16:09:00,
2013-02-16 11:14:00,33.3,26.2,30.04,NW,324,1.0,3.0,75,0.00,,,0.00,Wunderground v.1.15,2013-02-16 16:14:00,
2013-02-16 11:19:00,33.5,26.4,30.03,WNW,299,2.0,4.0,75,0.00,,,0.00,Wunderground v.1.15,2013-02-16 16:19:00,
2013-02-16 11:24:00,33.7,26.6,30.03,WNW,300,1.0,1.0,75,0.00,,,0.00,Wunderground v.1.15,2013-02-16 16:24:00,
2013-02-16 11:29:00,33.9,26.5,30.02,SW,229,1.0,2.0,74,0.00,,,0.00,Wunderground v.1.15,2013-02-16 16:29:00,
2013-02-16 11:34:00,34.2,27.1,30.02,NNW,348,0.0,6.0,75,0.00,,,0.00,Wunderground v.1.15,2013-02-16 16:34:00,
2013-02-16 11:39:00,34.2,26.1,30.02,West,264,1.0,6.0,72,0.00,,,0.00,Wunderground v.1.15,2013-02-16 16:39:00,
2013-02-16 11:44:00,34.2,26.1,30.02,West,264,1.0,3.0,72,0.00,,,0.00,Wunderground v.1.15,2013-02-16 16:44:00,
2013-02-16 11:49:00,34.0,26.9,30.02,SW,236,1.0,4.0,75,0.00,,,0.00,Wunderground v.1.15,2013-02-16 16:49:00,
2013-02-16 11:55:00,33.8,26.7,30.02,NW,309,0.0,4.0,75,0.00,,,0.00,Wunderground v.1.15,2013-02-16 16:55:00,
2013-02-16 12:00:00,33.6,26.2,30.02,East,94,0.0,1.0,74,0.00,,,0.00,Wunderground v.1.15,2013-02-16 17:00:00,
2013-02-16 12:05:00,33.6,26.5,30.02,WSW,247,0.0,4.0,75,0.00,,,0.00,Wunderground v.1.15,2013-02-16 17:05:00,
2013-02-16 12:10:00,33.6,26.2,30.02,North,9,1.0,1.0,74,0.00,,,0.00,Wunderground v.1.15,2013-02-16 17:10:00,
2013-02-16 12:15:00,33.6,26.8,30.02,WNW,286,0.0,4.0,76,0.00,,,0.00,Wunderground v.1.15,2013-02-16 17:15:00,
2013-02-16 12:20:00,33.5,26.4,30.02,West,271,2.0,2.0,75,0.00,,,0.00,Wunderground v.1.15,2013-02-16 17:20:00,
2013-02-16 12:25:00,33.2,25.8,30.02,West,271,0.0,2.0,74,0.00,,,0.00,Wunderground v.1.15,2013-02-16 17:25:00,
2013-02-16 12:30:00,33.2,26.5,30.02,WNW,292,0.0,2.0,76,0.00,,,0.00,Wunderground v.1.15,2013-02-16 17:30:00,
2013-02-16 12:35:00,33.0,26.6,30.01,WSW,242,1.0,3.0,77,0.00,,,0.00,Wunderground v.1.15,2013-02-16 17:35:00,
2013-02-16 12:40:00,32.8,26.1,30.01,West,263,2.0,2.0,76,0.00,,,0.00,Wunderground v.1.15,2013-02-16 17:40:00,
2013-02-16 12:45:00,32.6,25.9,30.01,WNW,296,2.0,2.0,76,0.00,,,0.00,Wunderground v.1.15,2013-02-16 17:45:00,
2013-02-16 12:50:00,32.4,25.7,30.01,WSW,242,1.0,2.0,76,0.00,,,0.00,Wunderground v.1.15,2013-02-16 17:50:00,
2013-02-16 12:55:00,32.1,25.7,30.01,West,259,1.0,2.0,77,0.00,,,0.00,Wunderground v.1.15,2013-02-16 17:55:00,
2013-02-16 13:00:00,31.9,25.5,30.01,West,278,1.0,2.0,77,0.00,,,0.00,Wunderground v.1.15,2013-02-16 18:00:00,
2013-02-16 13:05:00,31.7,25.6,30.01,NW,313,0.0,7.0,78,0.00,,,0.00,Wunderground v.1.15,2013-02-16 18:05:00,
2013-02-16 13:10:00,31.6,25.2,30.01,NW,325,1.0,4.0,77,0.00,,,0.00,Wunderground v.1.15,2013-02-16 18:10:00,
2013-02-16 13:15:00,31.7,25.3,30.01,SW,223,0.0,4.0,77,0.00,,,0.00,Wunderground v.1.15,2013-02-16 18:15:00,
2013-02-16 13:20:00,31.8,25.4,30.01,NW,310,2.0,2.0,77,0.00,,,0.00,Wunderground v.1.15,2013-02-16 18:20:00,
2013-02-16 13:25:00,32.0,25.6,30.01,NE,40,2.0,7.0,77,0.00,,,0.00,Wunderground v.1.15,2013-02-16 18:25:00,
2013-02-16 13:30:00,32.0,25.3,30.01,West,268,1.0,2.0,76,0.00,,,0.00,Wunderground v.1.15,2013-02-16 18:30:00,
2013-02-16 13:35:00,31.8,25.1,30.01,WNW,288,2.0,14.0,76,0.00,,,0.00,Wunderground v.1.15,2013-02-16 18:35:00,
2013-02-16 13:40:00,31.6,25.2,30.01,West,279,0.0,2.0,77,0.00,,,0.00,Wunderground v.1.15,2013-02-16 18:40:00,
2013-02-16 13:45:00,31.8,25.4,30.00,West,280,2.0,2.0,77,0.00,,,0.00,Wunderground v.1.15,2013-02-16 18:45:00,
2013-02-16 13:50:00,32.1,25.1,29.99,ENE,69,0.0,4.0,75,0.00,,,0.00,Wunderground v.1.15,2013-02-16 18:50:00,
2013-02-16 13:55:00,32.2,24.5,30.00,NNE,21,2.0,10.0,73,0.00,,,0.00,Wunderground v.1.15,2013-02-16 18:55:00,
2013-02-16 14:01:00,32.3,24.6,29.99,NE,37,6.0,6.0,73,0.00,,,0.00,Wunderground v.1.15,2013-02-16 19:01:00,
2013-02-16 14:06:00,32.3,24.3,29.99,NE,45,2.0,13.0,72,0.00,,,0.00,Wunderground v.1.15,2013-02-16 19:06:00,
2013-02-16 14:11:00,32.4,24.7,29.99,NNE,16,0.0,3.0,73,0.00,,,0.00,Wunderground v.1.15,2013-02-16 19:11:00,
2013-02-16 14:16:00,32.7,24.7,29.99,NNW,341,2.0,13.0,72,0.00,,,0.00,Wunderground v.1.15,2013-02-16 19:16:00,
2013-02-16 14:21:00,32.8,24.8,29.99,NE,35,4.0,10.0,72,0.00,,,0.00,Wunderground v.1.15,2013-02-16 19:21:00,
2013-02-16 14:26:00,32.6,24.6,29.99,SSW,211,1.0,10.0,72,0.00,,,0.00,Wunderground v.1.15,2013-02-16 19:26:00,
2013-02-16 14:31:00,32.5,24.8,29.99,West,260,1.0,4.0,73,0.00,,,0.00,Wunderground v.1.15,2013-02-16 19:31:00,
2013-02-16 14:36:00,32.3,24.9,29.99,WSW,255,1.0,5.0,74,0.00,,,0.00,Wunderground v.1.15,2013-02-16 19:36:00,
2013-02-16 14:41:00,32.3,24.9,30.00,NE,46,11.0,11.0,74,0.00,,,0.00,Wunderground v.1.15,2013-02-16 19:41:00,
2013-02-16 14:46:00,32.1,23.4,29.99,North,5,2.0,11.0,70,0.00,,,0.00,Wunderground v.1.15,2013-02-16 19:46:00,
2013-02-16 14:51:00,31.8,22.8,29.99,SSE,157,3.0,3.0,69,0.00,,,0.00,Wunderground v.1.15,2013-02-16 19:51:00,
2013-02-16 14:56:00,31.5,23.2,30.00,West,275,0.0,6.0,71,0.00,,,0.00,Wunderground v.1.15,2013-02-16 19:56:00,
2013-02-16 15:01:00,31.3,22.3,30.00,NNE,31,2.0,3.0,69,0.00,,,0.00,Wunderground v.1.15,2013-02-16 20:01:00,
2013-02-16 15:06:00,31.2,21.9,30.00,West,264,0.0,7.0,68,0.00,,,0.00,Wunderground v.1.15,2013-02-16 20:06:00,
2013-02-16 15:11:00,31.5,22.5,29.99,West,281,1.0,4.0,69,0.00,,,0.00,Wunderground v.1.15,2013-02-16 20:11:00,
2013-02-16 15:16:00,31.8,20.3,29.99,SW,225,6.0,7.0,62,0.00,,,0.00,Wunderground v.1.15,2013-02-16 20:16:00,
2013-02-16 15:21:00,31.7,19.0,29.99,WNW,284,1.0,5.0,59,0.00,,,0.00,Wunderground v.1.15,2013-02-16 20:21:00,
2013-02-16 15:26:00,31.7,19.0,29.99,WSW,251,4.0,7.0,59,0.00,,,0.00,Wunderground v.1.15,2013-02-16 20:26:00,
2013-02-16 15:31:00,31.7,19.4,30.00,WNW,292,2.0,9.0,60,0.00,,,0.00,Wunderground v.1.15,2013-02-16 20:31:00,
2013-02-16 15:36:00,31.8,18.7,29.99,West,271,2.0,9.0,58,0.00,,,0.00,Wunderground v.1.15,2013-02-16 20:36:00,
2013-02-16 15:41:00,31.7,18.6,30.00,West,266,3.0,6.0,58,0.00,,,0.00,Wunderground v.1.15,2013-02-16 20:41:00,
2013-02-16 15:46:00,31.9,19.2,30.00,SW,234,4.0,6.0,59,0.00,,,0.00,Wunderground v.1.15,2013-02-16 20:46:00,
2013-02-16 15:51:00,31.9,18.4,30.00,SSW,192,10.0,10.0,57,0.00,,,0.00,Wunderground v.1.15,2013-02-16 20:51:00,
2013-02-16 15:56:00,31.7,18.2,30.00,SW,234,1.0,10.0,57,0.00,,,0.00,Wunderground v.1.15,2013-02-16 20:56:00,
2013-02-16 16:01:00,31.4,17.5,30.00,WSW,240,5.0,11.0,56,0.00,,,0.00,Wunderground v.1.15,2013-02-16 21:01:00,
2013-02-16 16:06:00,31.3,18.2,30.00,West,275,2.0,11.0,58,0.00,,,0.00,Wunderground v.1.15,2013-02-16 21:06:00,
2013-02-16 16:11:00,31.6,18.5,30.00,WSW,255,2.0,4.0,58,0.00,,,0.00,Wunderground v.1.15,2013-02-16 21:11:00,
2013-02-16 16:16:00,31.7,18.2,30.00,West,280,5.0,9.0,57,0.00,,,0.00,Wunderground v.1.15,2013-02-16 21:16:00,
2013-02-16 16:21:00,31.4,17.9,30.01,WSW,257,6.0,9.0,57,0.00,,,0.00,Wunderground v.1.15,2013-02-16 21:21:00,
2013-02-16 16:26:00,31.2,18.1,30.01,West,262,2.0,9.0,58,0.00,,,0.00,Wunderground v.1.15,2013-02-16 21:26:00,
2013-02-16 16:31:00,31.0,17.5,30.01,WNW,298,5.0,7.0,57,0.00,,,0.00,Wunderground v.1.15,2013-02-16 21:31:00,
2013-02-16 16:36:00,30.6,17.6,30.01,West,261,2.0,7.0,58,0.00,,,0.00,Wunderground v.1.15,2013-02-16 21:36:00,
2013-02-16 16:41:00,30.3,17.7,30.02,SSW,212,5.0,9.0,59,0.00,,,0.00,Wunderground v.1.15,2013-02-16 21:41:00,
2013-02-16 16:46:00,30.1,17.1,30.01,WNW,288,2.0,12.0,58,0.00,,,0.00,Wunderground v.1.15,2013-02-16 21:46:00,
2013-02-16 16:51:00,30.0,17.4,30.01,WNW,294,2.0,5.0,59,0.00,,,0.00,Wunderground v.1.15,2013-02-16 21:51:00,
2013-02-16 16:56:00,29.9,18.1,30.02,SW,227,3.0,9.0,61,0.00,,,0.00,Wunderground v.1.15,2013-02-16 21:56:00,
2013-02-16 17:01:00,29.7,17.9,30.02,WSW,252,1.0,5.0,61,0.00,,,0.00,Wunderground v.1.15,2013-02-16 22:01:00,
2013-02-16 17:06:00,29.2,18.2,30.02,SW,227,3.0,7.0,63,0.00,,,0.00,Wunderground v.1.15,2013-02-16 22:06:00,
2013-02-16 17:11:00,28.8,18.1,30.02,WSW,255,3.0,6.0,64,0.00,,,0.00,Wunderground v.1.15,2013-02-16 22:11:00,
2013-02-16 17:16:00,28.6,18.7,30.02,SW,228,0.0,6.0,66,0.00,,,0.00,Wunderground v.1.15,2013-02-16 22:16:00,
2013-02-16 17:21:00,28.4,19.2,30.02,WNW,290,1.0,3.0,68,0.00,,,0.00,Wunderground v.1.15,2013-02-16 22:21:00,
2013-02-16 17:26:00,28.3,20.4,30.03,NW,319,4.0,4.0,72,0.00,,,0.00,Wunderground v.1.15,2013-02-16 22:26:00,
2013-02-16 17:31:00,28.1,19.2,30.03,West,265,3.0,4.0,69,0.00,,,0.00,Wunderground v.1.15,2013-02-16 22:31:00,
2013-02-16 17:37:00,27.9,19.4,30.03,WNW,294,2.0,7.0,70,0.00,,,0.00,Wunderground v.1.15,2013-02-16 22:37:00,
2013-02-16 17:42:00,27.8,19.6,30.03,West,277,4.0,6.0,71,0.00,,,0.00,Wunderground v.1.15,2013-02-16 22:42:00,
2013-02-16 17:47:00,27.6,18.8,30.03,West,281,2.0,7.0,69,0.00,,,0.00,Wunderground v.1.15,2013-02-16 22:47:00,
2013-02-16 17:52:00,27.5,18.3,30.03,West,265,1.0,7.0,68,0.00,,,0.00,Wunderground v.1.15,2013-02-16 22:52:00,
2013-02-16 17:57:00,27.3,18.1,30.03,SE,145,0.0,7.0,68,0.00,,,0.00,Wunderground v.1.15,2013-02-16 22:57:00,
2013-02-16 18:02:00,27.3,18.5,30.04,WNW,293,1.0,3.0,69,0.00,,,0.00,Wunderground v.1.15,2013-02-16 23:02:00,
2013-02-16 18:07:00,27.2,17.7,30.04,West,268,4.0,6.0,67,0.00,,,0.00,Wunderground v.1.15,2013-02-16 23:07:00,
2013-02-16 18:12:00,27.2,17.7,30.05,West,281,1.0,4.0,67,0.00,,,0.00,Wunderground v.1.15,2013-02-16 23:12:00,
2013-02-16 18:17:00,27.2,17.7,30.06,WSW,238,1.0,4.0,67,0.00,,,0.00,Wunderground v.1.15,2013-02-16 23:17:00,
2013-02-16 18:22:00,27.1,17.2,30.06,WSW,254,3.0,4.0,66,0.00,,,0.00,Wunderground v.1.15,2013-02-16 23:22:00,
2013-02-16 18:27:00,27.1,16.5,30.06,WSW,248,2.0,11.0,64,0.00,,,0.00,Wunderground v.1.15,2013-02-16 23:27:00,
2013-02-16 18:32:00,27.0,15.7,30.07,WSW,242,0.0,4.0,62,0.00,,,0.00,Wunderground v.1.15,2013-02-16 23:32:00,
2013-02-16 18:37:00,26.9,16.0,30.07,North,5,0.0,6.0,63,0.00,,,0.00,Wunderground v.1.15,2013-02-16 23:37:00,
2013-02-16 18:42:00,26.9,16.0,30.07,NNW,348,0.0,2.0,63,0.00,,,0.00,Wunderground v.1.15,2013-02-16 23:42:00,
2013-02-16 18:47:00,26.8,16.2,30.08,WNW,299,0.0,5.0,64,0.00,,,0.00,Wunderground v.1.15,2013-02-16 23:47:00,
2013-02-16 18:52:00,26.7,17.2,30.08,West,265,1.0,10.0,67,0.00,,,0.00,Wunderground v.1.15,2013-02-16 23:52:00,
2013-02-16 18:57:00,26.4,18.6,30.08,North,5,0.0,10.0,72,0.00,,,0.00,Wunderground v.1.15,2013-02-16 23:57:00,
2013-02-16 19:02:00,26.1,19.3,30.08,NW,310,0.0,1.0,75,0.00,,,0.00,Wunderground v.1.15,2013-02-17 00:02:00,
2013-02-16 19:07:00,25.8,19.6,30.08,NNW,345,1.0,11.0,77,0.00,,,0.00,Wunderground v.1.15,2013-02-17 00:07:00,
2013-02-16 19:12:00,25.5,19.3,30.09,NNW,328,0.0,3.0,77,0.00,,,0.00,Wunderground v.1.15,2013-02-17 00:12:00,
2013-02-16 19:17:00,25.3,19.4,30.09,NW,313,3.0,3.0,78,0.00,,,0.00,Wunderground v.1.15,2013-02-17 00:17:00,
2013-02-16 19:22:00,25.2,19.3,30.09,NW,311,0.0,1.0,78,0.00,,,0.00,Wunderground v.1.15,2013-02-17 00:22:00,
2013-02-16 19:27:00,25.2,18.4,30.09,WSW,257,0.0,4.0,75,0.00,,,0.00,Wunderground v.1.15,2013-02-17 00:27:00,
2013-02-16 19:32:00,25.2,18.1,30.09,West,268,1.0,12.0,74,0.00,,,0.00,Wunderground v.1.15,2013-02-17 00:32:00,
2013-02-16 19:37:00,25.4,17.9,30.09,SW,223,0.0,12.0,73,0.00,,,0.00,Wunderground v.1.15,2013-02-17 00:37:00,
2013-02-16 19:42:00,25.4,17.9,30.09,NNE,24,1.0,2.0,73,0.00,,,0.00,Wunderground v.1.15,2013-02-17 00:42:00,
2013-02-16 19:47:00,25.5,17.7,30.09,WSW,252,1.0,2.0,72,0.00,,,0.00,Wunderground v.1.15,2013-02-17 00:47:00,
2013-02-16 19:52:00,25.5,17.1,30.09,West,267,1.0,13.0,70,0.00,,,0.00,Wunderground v.1.15,2013-02-17 00:52:00,
2013-02-16 19:57:00,25.6,16.8,30.10,WSW,248,0.0,13.0,69,0.00,,,0.00,Wunderground v.1.15,2013-02-17 00:57:00,
2013-02-16 20:02:00,25.5,16.7,30.10,WSW,253,0.0,2.0,69,0.00,,,0.00,Wunderground v.1.15,2013-02-17 01:02:00,
2013-02-16 20:07:00,25.5,16.4,30.10,West,277,1.0,4.0,68,0.00,,,0.00,Wunderground v.1.15,2013-02-17 01:07:00,
2013-02-16 20:12:00,25.5,16.7,30.10,WSW,252,1.0,4.0,69,0.00,,,0.00,Wunderground v.1.15,2013-02-17 01:12:00,
2013-02-16 20:17:00,25.4,16.6,30.11,WSW,252,1.0,4.0,69,0.00,,,0.00,Wunderground v.1.15,2013-02-17 01:17:00,
2013-02-16 20:22:00,25.4,17.0,30.11,West,269,0.0,2.0,70,0.00,,,0.00,Wunderground v.1.15,2013-02-17 01:22:00,
2013-02-16 20:27:00,25.4,17.0,30.11,NNW,343,0.0,3.0,70,0.00,,,0.00,Wunderground v.1.15,2013-02-17 01:27:00,
2013-02-16 20:32:00,25.3,18.8,30.12,WNW,292,2.0,5.0,76,0.00,,,0.00,Wunderground v.1.15,2013-02-17 01:32:00,
2013-02-16 20:37:00,24.8,20.1,30.13,West,281,2.0,9.0,82,0.00,,,0.00,Wunderground v.1.15,2013-02-17 01:37:00,
2013-02-16 20:43:00,24.3,21.0,30.13,WNW,287,0.0,3.0,87,0.00,,,0.00,Wunderground v.1.15,2013-02-17 01:43:00,
2013-02-16 20:48:00,23.7,21.2,30.13,WNW,298,0.0,3.0,90,0.00,,,0.00,Wunderground v.1.15,2013-02-17 01:48:00,
2013-02-16 20:53:00,23.3,20.8,30.13,North,5,1.0,2.0,90,0.00,,,0.00,Wunderground v.1.15,2013-02-17 01:53:00,
2013-02-16 20:58:00,23.1,20.9,30.14,East,80,0.0,3.0,91,0.00,,,0.00,Wunderground v.1.15,2013-02-17 01:58:00,
2013-02-16 21:03:00,23.0,20.5,30.14,North,355,0.0,2.0,90,0.00,,,0.00,Wunderground v.1.15,2013-02-17 02:03:00,
2013-02-16 21:08:00,22.9,19.9,30.13,WSW,240,4.0,14.0,88,0.00,,,0.00,Wunderground v.1.15,2013-02-17 02:08:00,
2013-02-16 21:13:00,23.0,19.7,30.14,NNE,17,0.0,6.0,87,0.00,,,0.00,Wunderground v.1.15,2013-02-17 02:13:00,
2013-02-16 21:18:00,23.1,19.5,30.14,SW,232,0.0,6.0,86,0.00,,,0.00,Wunderground v.1.15,2013-02-17 02:18:00,
2013-02-16 21:23:00,23.1,19.3,30.14,ENE,64,1.0,3.0,85,0.00,,,0.00,Wunderground v.1.15,2013-02-17 02:23:00,
2013-02-16 21:28:00,23.1,18.7,30.14,North,11,0.0,3.0,83,0.00,,,0.00,Wunderground v.1.15,2013-02-17 02:28:00,
2013-02-16 21:33:00,23.3,18.3,30.14,North,360,2.0,11.0,81,0.00,,,0.00,Wunderground v.1.15,2013-02-17 02:33:00,
2013-02-16 21:38:00,23.5,17.9,30.14,North,5,0.0,11.0,79,0.00,,,0.00,Wunderground v.1.15,2013-02-17 02:38:00,
2013-02-16 21:44:00,23.7,18.7,30.15,South,189,0.0,2.0,81,0.00,,,0.00,Wunderground v.1.15,2013-02-17 02:44:00,
2013-02-16 21:49:00,23.8,17.6,30.14,SSW,212,0.0,3.0,77,0.00,,,0.00,Wunderground v.1.15,2013-02-17 02:49:00,
2013-02-16 21:54:00,23.9,18.3,30.14,SSW,207,0.0,1.0,79,0.00,,,0.00,Wunderground v.1.15,2013-02-17 02:54:00,
2013-02-16 21:59:00,24.0,17.8,30.14,North,5,0.0,5.0,77,0.00,,,0.00,Wunderground v.1.15,2013-02-17 02:59:00,
2013-02-16 22:04:00,24.1,17.0,30.14,WNW,297,1.0,7.0,74,0.00,,,0.00,Wunderground v.1.15,2013-02-17 03:04:00,
2013-02-16 22:09:00,24.3,16.6,30.14,NW,325,0.0,7.0,72,0.00,,,0.00,Wunderground v.1.15,2013-02-17 03:09:00,
2013-02-16 22:14:00,24.4,16.7,30.14,SW,236,0.0,4.0,72,0.00,,,0.00,Wunderground v.1.15,2013-02-17 03:14:00,
2013-02-16 22:19:00,24.5,16.1,30.14,West,277,0.0,4.0,70,0.00,,,0.00,Wunderground v.1.15,2013-02-17 03:19:00,
2013-02-16 22:24:00,24.5,15.4,30.14,WSW,254,2.0,6.0,68,0.00,,,0.00,Wunderground v.1.15,2013-02-17 03:24:00,
2013-02-16 22:29:00,24.5,15.4,30.15,West,272,1.0,13.0,68,0.00,,,0.00,Wunderground v.1.15,2013-02-17 03:29:00,
2013-02-16 22:34:00,24.5,15.4,30.14,SW,217,0.0,2.0,68,0.00,,,0.00,Wunderground v.1.15,2013-02-17 03:34:00,
2013-02-16 22:39:00,24.4,15.3,30.15,West,259,1.0,3.0,68,0.00,,,0.00,Wunderground v.1.15,2013-02-17 03:39:00,
2013-02-16 22:44:00,24.4,15.0,30.15,WNW,284,1.0,3.0,67,0.00,,,0.00,Wunderground v.1.15,2013-02-17 03:44:00,
2013-02-16 22:49:00,24.3,15.3,30.14,WSW,257,1.0,5.0,68,0.00,,,0.00,Wunderground v.1.15,2013-02-17 03:49:00,
2013-02-16 22:54:00,24.2,15.2,30.15,WNW,302,1.0,4.0,68,0.00,,,0.00,Wunderground v.1.15,2013-02-17 03:54:00,
2013-02-16 22:59:00,24.1,14.7,30.15,West,269,0.0,6.0,67,0.00,,,0.00,Wunderground v.1.15,2013-02-17 03:59:00,
2013-02-16 23:04:00,24.1,14.7,30.15,NNW,340,0.0,9.0,67,0.00,,,0.00,Wunderground v.1.15,2013-02-17 04:04:00,
2013-02-16 23:09:00,24.0,14.3,30.15,West,261,0.0,9.0,66,0.00,,,0.00,Wunderground v.1.15,2013-02-17 04:09:00,
2013-02-16 23:14:00,24.0,14.3,30.16,WSW,249,1.0,4.0,66,0.00,,,0.00,Wunderground v.1.15,2013-02-17 04:14:00,
2013-02-16 23:19:00,23.9,14.2,30.15,WSW,245,0.0,4.0,66,0.00,,,0.00,Wunderground v.1.15,2013-02-17 04:19:00,
2013-02-16 23:24:00,23.8,13.7,30.15,West,265,1.0,5.0,65,0.00,,,0.00,Wunderground v.1.15,2013-02-17 04:24:00,
2013-02-16 23:29:00,23.8,13.4,30.15,WSW,246,2.0,6.0,64,0.00,,,0.00,Wunderground v.1.15,2013-02-17 04:29:00,
2013-02-16 23:34:00,23.7,13.3,30.16,West,273,2.0,4.0,64,0.00,,,0.00,Wunderground v.1.15,2013-02-17 04:34:00,
2013-02-16 23:39:00,23.7,12.9,30.15,WNW,288,1.0,1.0,63,0.00,,,0.00,Wunderground v.1.15,2013-02-17 04:39:00,
2013-02-16 23:44:00,23.6,12.8,30.15,SSW,199,0.0,6.0,63,0.00,,,0.00,Wunderground v.1.15,2013-02-17 04:44:00,
2013-02-16 23:49:00,23.6,12.8,30.15,WSW,252,0.0,1.0,63,0.00,,,0.00,Wunderground v.1.15,2013-02-17 04:49:00,
2013-02-16 23:54:00,23.5,12.7,30.16,WSW,243,1.0,4.0,63,0.00,,,0.00,Wunderground v.1.15,2013-02-17 04:54:00,
2013-02-16 23:59:00,23.5,13.1,30.16,West,272,1.0,1.0,64,0.00,,,0.00,Wunderground v.1.15,2013-02-17 04:59:00,